SIRIUS FM-5

导读 | 星芒AI

SIRIUS FM-5 是一颗由劳拉空间系统公司制造的卫星,于2005年发射,用于SIRIUS卫星广播服务。该卫星运行在地球同步轨道,主要负责向北美地区传输数字音频信号,提供高质量的卫星广播服务。作为SIRIUS卫星网络的一部分,FM-5 提升了频道覆盖范围与信号稳定性,支持多种音乐、新闻和娱乐频道。其先进设计确保了长期可靠运行,为用户带来清晰、无干扰的收听体验。

基本信息
目录编号:
35493
目录名称:
SIRIUS FM-5
国际标识:
2009-034A
轨道中心:
EARTH
卫星名称:
SIRIUS FM-5
卫星全名:
--
卫星状态:
在轨 (已飞行6012 天)
发射日期:
2009-06-30 UTC
国别 :
美国 (US)
星等 :
--
轨道信息
数据来源 国际轨道数据 AOE轨道数据
星历时间 2025-12-14T17:19:39+0800
1天前
查看轨道信息
2025-12-14T17:00:00+0800
1天前
查看轨道信息
半长轴 42163.271km 42164.756km
偏心率 0.0000741 0.0000763
轨道倾角 0.021° 0.015°
近地点辐角 251.221° 219.888°
升交点赤经 287.517° 295.191°
平近点角 318.343° 337.073°
近地点 35782.011km 35783.403km
远地点 35788.261km 35789.839km
周期 1436.022分钟 1436.098分钟
每日圈数 1.00277 1.002717
详细信息
使用方式:
暂无
2D轨道图
3D轨道图
轨道高度分析图
轨道倾角分析图
轨道综合分析图
查看轨道综合分析图